User: anonymous   Login
Location: Bothwell
(42.3833°S, 147.0000°E)
Time: 01:24:52
(UTC+10:00)
Language:

AO-73 - Orbit

View from above orbital plane
View from above orbital plane
View from above satellite
View from above satellite

Ground track
Ground track

The orbit data is extracted from the following two-line orbital elements,

1 39444U 13066AE  22274.13772659  .00004046  00000-0  48032-3 0  9991
2 39444  97.6371 243.3674 0057509  46.8220 313.7780 14.83811765477782
Epoch (UTC): 01 October 2022 03:18:19
Eccentricity: 0.0057509
inclination: 97.6371°
perigee height: 577 km
apogee height: 657 km
right ascension of ascending node: 243.3674°
argument of perigee: 46.8220°
revolutions per day: 14.83811765
mean anomaly at epoch: 313.7780°
orbit number at epoch: 47778

The dashed part of the orbit path shows where the satellite is in the earth's shadow,  

DLR